FW2517 Weather Reports


time (UTC)temp
F
wind
direction
speed
knots
gust
knots
rain 1hr
in
rain 24hr
in
rain mn
in
humidity
%
barometer
mb
20260906043033 71 355 0.0 0.0 0.00 0.31 0.00 85 1012.2
20260906041528 71 355 0.0 0.0 0.00 0.31 0.00 85 1012.4
20260906040033 71 355 0.0 0.0 0.00 0.31 0.00 85 1012.5
20260906034532 71 355 0.0 0.0 0.00 0.31 0.31 84 1012.7
20260906033023 71 355 0.0 0.0 0.00 0.31 0.31 85 1012.7
20260906031529 71 355 0.0 0.0 0.00 0.31 0.31 84 1012.7
20260906030022 72 355 0.0 0.0 0.00 0.31 0.31 84 1012.7
20260906024519 72 355 0.0 0.0 0.00 0.31 0.31 83 1012.7
20260906023017 72 355 0.0 0.0 0.00 0.31 0.31 82 1012.4
20260906021517 71 355 0.0 0.0 0.00 0.31 0.31 80 1012.2
20260906020019 72 355 0.0 0.0 0.00 0.31 0.31 78 1012.1
20260906014544 72 355 0.0 0.0 0.00 0.31 0.31 77 1012.0
20260906013100 73 355 0.0 0.0 0.00 0.31 0.31 77 1011.8
20260906011546 73 355 0.0 0.0 0.00 0.31 0.31 76 1012.0
20260906010041 73 355 0.0 0.0 0.00 0.31 0.31 74 1011.9
20260906004540 74 355 0.0 0.0 0.00 0.31 0.31 70 1011.7
20260906003040 75 355 0.0 0.0 0.00 0.31 0.31 69 1011.6
20260906001537 75 355 0.0 0.0 0.00 0.31 0.31 69 1011.6
20260906000037 76 355 0.0 0.0 0.00 0.31 0.31 68 1011.3
20260905234536 76 355 0.0 0.0 0.00 0.31 0.31 68 1011.2
20260905233042 77 355 0.0 0.0 0.00 0.31 0.31 68 1011.1
20260905231533 79 355 0.0 0.0 0.00 0.31 0.31 63 1011.0
20260905230039 80 355 0.0 0.0 0.00 0.31 0.31 62 1011.0
20260905224532 79 344 0.0 0.0 0.00 0.31 0.31 62 1010.8
20260905223032 78 343 0.0 0.9 0.00 0.31 0.31 64 1010.8
20260905221601 77 332 0.0 0.0 0.00 0.31 0.31 63 1010.7
20260905221502 77 332 0.0 0.0 0.00 0.31 0.31 63 1010.7
20260905220110 77 332 0.0 0.9 0.00 0.31 0.31 63 1010.9
20260905214558 77 328 0.0 0.0 0.00 0.31 0.31 63 1011.0
20260905213158 76 321 0.0 0.0 0.00 0.31 0.31 66 1011.2
20260905211556 74 338 0.0 0.0 0.00 0.31 0.31 70 1011.4
20260905210106 73 330 0.0 0.9 0.01 0.31 0.31 80 1011.7
20260905204534 71 154 0.0 0.0 0.01 0.31 0.31 80 1011.8
20260905203024 71 153 0.0 0.0 0.01 0.31 0.31 79 1012.0
20260905201554 70 154 0.0 0.0 0.03 0.31 0.31 74 1012.0
20260905194522 70 178 0.0 0.0 0.30 0.30 0.30 68 1011.2
20260905193022 70 236 0.0 0.9 0.30 0.30 0.30 66 1012.0
20260905191547 74 211 6.1 19.1 0.26 0.26 0.26 57 1012.0
20260905190046 83 310 16.5 36.5 0.06 0.06 0.06 45 1013.0
20260905184545 94 312 0.0 0.0 0.00 0.00 0.00 36 1011.1
20260905183040 95 274 0.0 1.7 0.00 0.00 0.00 36 1011.1
20260905181538 95 333 0.0 0.9 0.00 0.00 0.00 38 1011.5
20260905180033 94 180 0.0 1.7 0.00 0.00 0.00 38 1011.5
20260905174605 94 188 0.0 0.0 0.00 0.00 0.00 40 1011.9
20260905173059 94 151 0.0 5.2 0.00 0.00 0.00 41 1012.2
20260905171624 93 309 0.0 3.5 0.00 0.00 0.00 38 1012.5
20260905100043 74 180 0.0 0.0 0.00 0.00 0.00 70 1012.2
20260905094628 74 180 0.0 0.0 0.00 0.00 0.00 70 1012.3
20260905093038 74 180 0.0 0.0 0.00 0.00 0.00 70 1012.3
20260905091537 74 180 0.0 0.0 0.00 0.00 0.00 70 1012.3
20260905090035 74 180 0.0 0.0 0.00 0.00 0.00 70 1012.3
20260905084539 74 180 0.0 0.0 0.00 0.00 0.00 70 1012.5
20260905083032 74 180 0.0 0.0 0.00 0.00 0.00 70 1012.6
20260905081528 74 180 0.0 0.0 0.00 0.00 0.00 70 1012.7
20260905080026 74 180 0.0 0.0 0.00 0.00 0.00 69 1012.9
20260905074524 74 180 0.0 0.0 0.00 0.00 0.00 69 1013.0
20260905073022 75 180 0.0 0.0 0.00 0.00 0.00 68 1013.0
20260905071519 75 180 0.0 0.0 0.00 0.00 0.00 68 1013.2
20260905070016 76 180 0.0 0.0 0.00 0.00 0.00 67 1013.4
20260905064515 76 180 0.0 0.0 0.00 0.00 0.00 67 1013.7
20260905063012 77 180 0.0 0.0 0.00 0.00 0.00 67 1013.8
20260905061509 77 180 0.0 0.0 0.00 0.00 0.00 66 1014.0
20260905060009 77 180 0.0 0.0 0.00 0.00 0.00 66 1014.1
20260905054503 78 180 0.0 0.0 0.00 0.00 0.00 65 1014.3
20260905053001 79 180 0.0 0.0 0.00 0.00 0.00 64 1014.2
20260905051608 80 180 0.0 0.0 0.00 0.00 0.00 62 1014.1
20260905050052 80 180 0.0 0.0 0.00 0.00 0.00 62 1014.5
20260905044550 81 180 0.0 0.0 0.00 0.00 0.00 61 1014.4